Regional Weather Roundup
Issued by NWS Upton, NY

Current Version | Previous Version | Text Only | Print | Product List | Glossary On
Versions: 1 2 3 4 5 6 7 8 9 10 11 12 13 14 15 16 17 18 19 20 21 22 23 24 25 26 27 28 29 30 31 32 33 34 35 36 37 38 39 40 41 42 43 44 45 46 47 48 49 50
000 ASUS41 KOKX 081908 RWROKX REGIONAL WEATHER ROUNDUP NATIONAL WEATHER SERVICE NEW YORK NY 200 PM EST THU DEC 08 2016 NOTE: "FAIR" INDICATES FEW OR NO CLOUDS BELOW 12,000 FEET WITH NO SIGNIFICANT WEATHER AND/OR OBSTRUCTIONS TO VISIBILITY. NYZ071-072-176-178-NJZ106-104-082000- NEW YORK CITY METRO AREA CITY SKY/WX TMP DP RH WIND PRES REMARKS Central Park N/A 45 21 39 MISG N/A Wall St Helipt CLOUDY 45 26 47 VRB6G20 29.89F Bronx Bot Gard N/A 41 21 45 W16 29.90R LaGuardia APRT PTSUNNY 45 22 40 NW18 29.88F Kennedy INTL CLOUDY 45 21 38 W18G25 29.90F Breezy Point N/A 43 N/A N/A W13G18 N/A Newark/Liberty CLOUDY 44 19 36 W21G28 29.88F Teterboro CLOUDY 43 21 41 W12 29.88S $$ NYZ177-179-078>081-082000- LONG ISLAND NEW YORK CITY SKY/WX TMP DP RH WIND PRES REMARKS Jones Beach N/A 41 N/A N/A W14 N/A Matinecock PT N/A 43 N/A N/A W24 N/A Farmingdale CLOUDY 44 21 40 NW9 29.87F MacArthur/ISP CLOUDY 44 26 49 W13 29.85F Shirley CLOUDY 43 30 60 SW8 29.86F Westhampton CLOUDY 43 29 57 SW10 29.86F Southampton N/A 45 36 70 SW5 29.81F Bridgehampton NOT AVBL East Hampton CLOUDY 43 30 59 W7 29.83F Montauk N/A 44 29 55 W9 29.85F $$ NYZ052-065-067-082000- HUDSON VALLEY CITY SKY/WX TMP DP RH WIND PRES REMARKS White Plains CLOUDY 40 22 48 W12G22 29.85S WCI 33 Newburgh PTSUNNY 41 27 56 W14G23 29.85F Montgomery PTSUNNY 43 23 45 W10G20 29.84F Poughkeepsie SUNNY 42 24 49 W17G23 29.83F Albany PTSUNNY 37 29 72 NW15 29.84R WCI 28 $$ NJZ001-105-106-008-010-013-015-019>022-104-082000- NEW JERSEY CITY SKY/WX TMP DP RH WIND PRES REMARKS Newark/Liberty CLOUDY 44 19 36 W21G28 29.88F Teterboro CLOUDY 43 21 41 W12 29.88S Caldwell CLOUDY 42 20 41 W17 29.89S Somerville MOSUNNY 43 21 41 W8 29.88S Linden N/A 44 21 40 NW12 29.89S Sussex SUNNY 42 21 43 W10G21 29.86F Andover N/A 42 19 39 W10 29.87F Trenton CLOUDY 43 21 41 W14 29.90F Millville CLOUDY 44 32 62 W8 29.95S Atlantic City CLOUDY 42 32 67 SW8 29.94F Wrightstown CLOUDY 44 29 55 W9 29.88F Toms River CLOUDY 41 31 67 SW8 29.92F Belmar CLOUDY 43 27 53 SW9 29.91F $$ PAZ047>061-062-071-082000- EASTERN PENNSYLVANIA CITY SKY/WX TMP DP RH WIND PRES REMARKS Philadelphia CLOUDY 45 21 38 W14 29.94S Allentown CLOUDY 41 19 41 W13G18 29.91S Scranton PTSUNNY 37 19 48 W12 29.88S WCI 29 $$ CTZ002-004>006-009-010-012-RIZ004-006-007-MAZ004-011-015-082000- SOUTHERN NEW ENGLAND IN CT CITY SKY/WX TMP DP RH WIND PRES REMARKS Bradley INTL PTSUNNY 42 30 62 SW7 29.81F Hartford PTSUNNY 42 26 53 W9 29.82F Danbury CLOUDY 40 22 48 W10 29.84F WCI 33 Wtrbury/Oxford PTSUNNY 39 25 56 W12G17 29.82F WCI 32 Bridgeport NOT AVBL Meriden PTSUNNY 44 23 43 SW10 29.83F New Haven CLOUDY 43 26 51 W13 29.84F Chester N/A 41 25 52 VRB5G13 29.82S Groton CLOUDY 47 31 53 W8 29.82F Wilimantic CLOUDY 43 29 57 W12 29.82F IN RI CITY SKY/WX TMP DP RH WIND PRES REMARKS Providence CLOUDY 42 30 62 W9 29.81F Block Island CLOUDY 44 29 55 W14G20 29.83S Westerly CLOUDY 45 26 47 SW7G16 29.82F IN MA CITY SKY/WX TMP DP RH WIND PRES REMARKS Boston CLOUDY 42 31 64 SW9 29.79F Worcester CLOUDY 36 29 75 W10 29.76F WCI 28 Westfield CLOUDY 42 32 67 SW5 29.80F Provincetown CLOUDY 45 33 63 SW18 29.78F Nantucket CLOUDY 47 38 71 W13 29.80F $$ ANZ330-335-338-340-345-350-353-355-082000- COASTAL MARINE OBSERVATIONS STATION/POSITION TIME SKY/WX TEMP WIND PRES VSBY WAVE AIR SEA DIR/SP/G HT/PER (UTC) (F) (DEG/KT/KT) (MB) (MI) (FT/S) NY HARB ENTRANCE 1850 44 52 260/ 16/ 19 1011.7 3/ 9 20 S FIRE ISLAND 1850 45 53 280/ 19/ 23 1011.4 4/ 9 GREAT SOUTH BAY 1830 42 43 N/A 23 SSW MONTAUK P 1850 46 54 250/ 16/ 19 1010.9 3/10 15 E BARNEGAT LI 1830 53 N/A 3/ 9 HUDSON CANYON 1750 47 56 1012.2 4/ 8 KINGS POINT 1830 42 47 1011.6 EXECUTION ROCKS 1845 44 270/ 12/ 17 N/A CENTRAL LI SOUND NOT AVBL EASTERN LI SOUND NOT AVBL ROBBINS REEF 1830 43 270/ 17/ 21 1012.0 $$ >>>>>>>>>>>>>>>>>>>>>>>>>>>> KEY <<<<<<<<<<<<<<<<<<<<<<<<<<< > < > SKY/WX - Sky Condition/Present Weather < > TMP - Temperature in Fahrenheit < > DP - Dew Point in Fahrenheit < > RH - Relative Humidity in Percent < > WIND - Direction (from) and Speed in MPH < > PRES - Mean Sea Level Pressure (inches of Hg) < > WCI - Wind Chill Index < > VSB - VISIBILITY IN MILES < > HX - HEAT INDEX < > TC - TEMPERATURE IN CELSIUS < > VRB - VARIABLE WIND DIRECTION < > < >>>>>>>>>>>>>>>>>>>>>>>>>>>> KEY <<<<<<<<<<<<<<<<<<<<<<<<<<<

USA.gov is the U.S. government's official web portal to all federal, state and local government web resources and services.